Theta_e
305 305 305 305 305 306 305 304 304 304 303 302 303 303 302 303 305 307 312 327 337 334 337 343 347 347 347 346 346 347 348 347 345 345 344 341 340 337 337 337 335 333 332
302 304 304 303 304 304 304 303 303 302 302 302 301 302 302 302 303 304 306 309 326 328 328 333 341 346 347 347 346 346 347 348 346 345 345 344 342 339 337 337 336 335 333
301 301 301 300 300 303 304 303 303 303 302 303 301 301 301 301 302 301 303 306 310 321 324 326 332 338 343 346 347 347 347 348 347 345 346 344 343 342 339 337 337 336 334
301 301 300 299 300 301 303 302 301 301 301 301 300 300 300 301 301 301 302 303 304 307 313 319 321 331 339 341 345 346 346 346 346 346 346 345 343 343 342 339 337 336 335
300 300 300 299 300 298 298 300 301 300 299 299 300 300 300 300 301 303 302 302 304 307 307 314 322 323 324 332 341 344 345 345 346 346 346 345 343 343 342 341 339 336 336
299 299 300 300 299 298 297 297 296 298 298 298 301 301 298 299 301 301 301 303 303 304 305 307 310 312 321 322 331 339 342 345 346 345 345 345 344 343 343 342 341 339 337
298 297 298 299 298 297 296 297 297 296 297 299 297 295 296 297 298 299 301 300 300 302 302 303 304 308 313 325 329 330 341 342 344 346 345 345 346 344 344 343 341 340 340
297 296 297 297 298 297 296 297 296 295 295 297 294 293 289 292 295 298 299 300 300 301 303 303 305 311 312 313 321 330 336 338 339 344 346 345 345 345 344 343 342 341 340
299 297 296 296 296 296 296 295 296 295 294 295 295 293 288 287 290 295 297 298 298 298 299 302 303 306 311 315 321 321 330 337 338 339 342 344 345 346 345 343 343 342 340
297 298 298 297 296 296 295 296 298 296 295 294 294 297 294 292 289 288 294 296 297 298 298 298 300 302 308 311 319 322 324 326 334 338 339 341 344 346 345 344 343 342 341
297 297 297 297 296 296 295 295 295 294 296 296 295 293 293 294 293 290 289 291 295 297 298 298 299 306 311 308 310 317 321 322 324 329 335 338 341 345 345 344 343 342 341
297 297 297 297 297 297 296 295 295 293 293 294 294 293 292 291 291 291 290 290 291 293 296 297 297 300 305 307 312 315 318 321 321 324 328 335 338 342 345 345 345 343 340
296 296 297 296 296 296 297 297 295 293 293 293 292 292 293 293 295 294 292 290 290 292 293 295 297 299 303 305 308 316 318 319 319 321 326 331 335 337 340 343 343 342 340
295 297 298 298 297 297 297 297 297 296 294 294 292 293 293 294 295 295 293 291 288 290 291 292 296 298 300 307 311 315 311 315 316 320 324 329 332 335 337 339 341 340 340
295 296 296 296 297 297 297 296 296 295 295 295 294 293 293 294 295 295 295 295 291 286 288 291 292 298 302 303 306 307 307 313 315 317 322 327 331 333 335 337 338 337 338
294 295 295 296 296 297 297 296 295 295 295 295 295 295 295 296 295 295 295 295 294 291 288 292 293 296 300 303 305 305 306 311 314 318 322 324 327 330 332 334 334 332 328
295 294 295 295 295 296 296 295 294 295 295 294 295 295 295 295 296 296 295 295 294 293 289 291 294 297 297 296 300 303 306 308 313 319 323 324 325 327 329 329 328 325 323
295 295 295 295 295 295 295 296 295 295 294 294 295 295 294 297 295 295 294 295 294 294 292 290 293 294 295 297 298 295 297 307 314 320 324 323 323 323 319 319 318 316 315
295 295 296 294 294 295 295 296 296 295 295 294 295 295 295 295 293 294 296 293 293 295 292 292 290 292 294 294 293 293 292 295 306 315 317 315 314 314 313 311 310 309 307
296 296 296 296 296 296 296 296 296 295 294 294 295 295 295 294 293 295 294 293 294 294 293 290 290 291 291 290 290 287 287 288 290 301 306 306 307 308 307 306 305 304 303
298 297 296 296 297 297 297 296 296 293 295 295 294 296 295 297 300 299 297 293 293 291 290 291 290 289 287 287 285 286 285 285 285 290 293 294 295 297 300 302 302 302 302
297 297 296 296 296 297 299 300 298 296 295 295 294 296 297 298 299 301 302 302 300 295 292 294 291 288 285 285 285 285 285 285 284 287 288 287 293 293 295 297 300 299 299
293 295 295 297 296 297 299 301 301 298 297 296 295 296 296 298 299 299 300 297 297 301 303 298 292 286 285 285 285 285 284 284 282 284 287 284 289 288 293 296 299 301 301
291 291 294 295 295 299 302 302 303 301 297 298 298 298 298 298 299 295 290 289 289 289 288 288 286 285 285 285 285 285 285 285 285 285 287 283 287 285 291 294 297 297 297
291 290 291 295 294 295 299 298 295 294 296 295 298 299 298 298 299 295 289 287 287 290 295 296 295 296 295 293 290 287 285 284 283 284 285 286 285 286 287 289 293 295 295
290 290 289 292 297 294 298 296 291 290 288 289 290 293 296 293 295 292 285 285 283 284 285 285 286 290 292 293 293 288 287 284 284 284 286 285 285 286 284 288 288 290 290
Wind_Speed
6 5 5 4 5 4 3 4 3 3 5 6 6 7 6 7 6 3 3 7 7 8 12 14 17 19 22 21 21 19 19 18 18 17 18 16 16 15 14 13 12 11 10
9 8 5 4 4 3 4 3 2 3 5 5 5 6 7 6 6 6 4 5 10 10 14 14 16 18 22 23 22 22 20 19 20 19 19 19 19 18 16 15 15 14 12
11 11 5 3 3 4 6 4 4 3 4 4 5 5 6 7 5 6 5 4 5 9 13 15 16 18 19 23 24 22 22 22 21 21 20 20 20 20 19 18 17 16 14
12 11 6 4 4 3 4 4 3 4 4 4 3 5 5 5 6 6 5 4 4 5 8 14 17 17 17 20 23 24 24 23 23 23 23 23 22 21 21 20 19 18 17
12 10 7 5 6 4 4 4 3 3 4 4 5 5 5 5 4 5 6 7 7 5 5 11 17 18 19 20 20 21 24 24 25 25 24 25 24 23 22 21 21 20 19
11 10 8 7 6 5 4 4 6 4 4 5 8 7 4 4 4 4 6 7 6 7 6 7 5 7 17 22 22 22 24 24 26 26 25 26 26 25 24 24 22 21 21
9 11 9 9 6 5 6 6 4 7 4 4 3 3 4 5 7 7 6 6 7 9 7 9 7 7 8 18 21 23 22 24 25 25 27 28 27 27 26 26 24 23 21
17 14 14 11 10 7 7 7 6 3 4 5 4 2 2 5 5 8 8 7 6 4 4 6 7 6 5 6 9 17 19 21 24 25 25 28 28 28 28 27 26 25 22
12 10 9 8 8 7 5 6 5 6 5 5 7 5 2 5 3 4 4 4 4 3 5 5 8 9 6 6 5 9 12 16 19 22 25 27 29 29 29 28 27 26 25
15 15 15 13 12 8 8 7 8 6 5 5 3 6 5 4 5 8 5 4 4 4 6 5 6 9 6 5 8 10 13 16 13 17 23 26 28 29 29 29 29 28 27
16 15 13 14 12 9 8 9 10 8 5 7 7 4 5 6 5 5 5 5 3 5 5 5 5 4 5 5 5 8 14 17 16 16 21 24 27 29 30 30 31 31 27
11 14 14 13 13 12 12 11 10 8 6 5 5 5 5 4 4 5 5 6 5 4 3 4 4 4 5 4 8 17 19 17 18 19 18 22 24 28 29 31 32 32 27
11 11 11 12 11 12 13 11 10 7 5 5 6 5 5 5 5 4 4 4 4 3 3 4 4 5 5 5 6 12 13 20 21 22 22 20 23 23 27 27 27 29 28
11 13 12 12 13 12 9 9 7 5 9 7 7 5 5 5 4 4 4 4 3 3 3 6 4 5 5 5 5 13 8 21 23 22 23 20 22 22 25 26 27 28 29
12 13 13 13 12 10 11 8 7 8 8 7 5 6 5 4 5 4 4 4 5 4 4 3 3 6 3 3 7 8 10 20 25 27 23 20 20 21 21 25 27 25 27
13 12 11 10 9 8 9 13 8 6 8 8 6 8 7 6 7 5 5 4 4 5 6 3 4 3 3 4 7 11 13 23 26 28 23 19 21 21 22 25 23 21 28
11 10 9 9 9 8 9 9 7 6 6 6 8 11 11 8 5 6 5 5 4 4 4 3 3 4 2 4 6 10 10 13 13 25 21 19 18 19 17 17 24 29 28
6 7 7 8 8 8 8 10 9 8 8 9 11 10 8 8 11 6 5 5 4 5 4 6 4 0 1 3 4 9 10 11 8 16 16 9 11 19 24 25 29 28 27
1 4 5 6 5 6 5 5 7 9 8 7 6 9 9 8 7 4 7 5 4 4 4 4 2 1 1 3 3 5 11 12 12 24 25 26 29 30 30 29 28 28 27
1 2 2 5 6 5 6 5 6 5 3 5 7 8 7 8 6 5 9 7 4 2 2 2 2 2 2 2 3 3 5 10 9 12 21 26 26 31 30 29 28 25 24
5 4 3 2 3 4 5 6 7 7 7 8 7 8 6 8 14 13 7 3 2 2 3 3 2 2 2 2 2 1 6 6 10 9 12 13 11 11 14 24 22 22 20
11 7 6 3 2 4 8 11 10 7 8 8 8 5 4 10 9 15 18 20 15 5 7 6 4 4 2 5 3 2 2 2 5 7 7 13 9 12 10 12 20 22 17
17 16 14 6 3 4 9 12 11 8 7 7 6 6 5 5 9 6 8 11 11 9 13 13 9 5 9 4 5 9 8 8 5 2 5 10 8 12 6 12 21 20 19
18 17 17 15 13 13 4 10 10 4 7 7 6 3 3 4 7 7 10 10 11 10 10 9 12 11 11 9 9 9 10 9 8 7 6 8 5 9 8 7 20 17 17
18 19 16 17 17 18 29 27 20 16 11 9 2 4 4 6 20 19 15 13 12 13 22 29 29 29 27 23 13 8 7 9 8 5 6 5 5 6 5 5 4 12 10
16 15 18 19 29 20 35 34 22 13 16 14 19 20 31 23 29 28 16 14 18 14 14 15 13 17 18 20 23 12 7 8 6 6 3 3 1 3 3 3 2 3 2
Wind_Direction
282 244 239 255 255 247 239 255 251 290 301 303 305 301 298 307 313 313 316 311 268 259 257 264 256 253 254 244 239 236 229 225 224 214 208 210 208 208 209 206 203 204 202
290 290 253 254 275 267 261 256 257 282 276 266 288 300 299 292 290 300 298 302 302 301 283 270 266 252 250 249 245 240 234 229 223 217 215 204 207 206 209 213 210 213 212
285 290 274 256 272 300 298 281 282 281 296 293 285 288 292 294 293 287 288 289 305 310 302 296 274 262 260 254 246 243 239 232 227 219 212 213 206 207 206 210 214 214 217
279 277 259 245 248 258 264 258 242 256 259 267 265 266 283 295 295 307 316 314 302 296 297 298 298 297 268 263 257 250 242 235 232 227 215 213 211 207 204 207 212 220 219
299 290 276 233 222 236 241 244 271 242 237 250 252 257 252 257 281 303 306 301 287 276 276 276 280 284 287 282 270 260 249 239 233 230 221 215 212 210 204 206 207 213 223
279 289 292 262 229 212 232 236 228 241 228 238 267 270 281 281 276 260 265 262 262 273 267 274 281 273 269 272 275 263 261 250 241 230 223 221 213 211 205 205 208 210 216
291 290 285 288 276 224 220 230 221 222 240 231 229 282 274 269 266 260 240 237 260 254 251 256 254 257 262 260 261 268 262 257 250 239 229 222 217 213 209 206 207 210 211
267 266 260 264 261 262 246 230 226 238 227 210 201 210 273 311 296 277 261 247 231 279 301 312 297 285 292 268 245 245 248 251 261 254 239 230 221 215 211 209 207 208 209
274 258 263 271 280 281 269 252 225 216 216 235 200 181 241 228 256 280 270 262 251 264 287 287 301 301 292 309 340 332 291 232 251 260 257 240 230 221 215 209 206 207 208
260 260 265 263 260 252 253 258 248 223 204 218 231 222 220 214 253 281 283 270 270 248 248 274 275 276 287 297 312 320 308 326 270 257 255 254 241 228 219 212 207 206 210
265 261 259 260 262 255 249 244 248 246 223 220 217 199 210 229 241 225 260 269 277 253 239 242 264 272 281 296 299 302 307 312 296 295 271 260 252 235 225 216 211 208 206
271 260 252 249 250 246 241 238 243 243 234 230 205 192 182 179 206 225 238 244 229 259 257 267 283 275 267 257 278 285 289 285 296 291 281 270 250 242 229 222 218 208 202
269 265 258 249 246 247 245 242 242 240 237 232 216 205 197 207 214 209 210 242 241 268 279 278 278 274 262 249 238 268 292 291 288 286 275 266 257 243 232 224 222 210 204
262 266 271 266 255 249 244 242 262 262 238 249 239 215 199 208 211 206 197 191 261 257 260 252 275 264 280 267 307 297 290 285 282 280 267 260 255 246 230 226 212 208 213
261 250 248 256 256 265 251 249 250 241 258 277 266 229 220 215 212 221 227 192 183 220 254 273 285 286 313 348 294 287 281 271 276 273 259 255 242 238 233 221 216 213 215
255 255 247 252 260 255 248 246 237 241 250 246 260 280 283 239 221 221 215 223 191 175 251 173 257 281 317 313 312 302 280 273 268 264 251 245 235 233 230 218 205 166 143
230 242 237 239 247 235 240 244 243 225 238 258 254 241 259 270 282 237 213 207 196 178 225 272 239 269 286 335 315 305 293 277 252 241 238 234 221 223 215 192 159 147 142
185 223 227 226 234 240 236 250 237 242 240 229 244 247 244 242 262 260 244 212 191 203 187 246 251 292 250 307 323 317 338 321 237 230 226 156 149 140 111 120 124 128 133
173 220 210 215 218 229 237 258 248 232 241 240 240 246 247 236 233 254 278 239 210 210 207 189 234 139 356 12 334 328 357 346 15 81 96 97 105 109 109 110 112 116 118
303 228 206 203 217 213 208 218 244 257 272 277 271 252 244 249 246 252 261 233 219 224 200 219 142 143 95 34 50 13 3 22 347 53 85 95 94 97 102 104 106 105 111
56 48 27 195 235 215 223 212 212 214 230 245 271 280 225 240 257 248 259 271 254 235 235 260 128 126 172 97 76 302 59 51 16 13 69 66 68 68 82 89 93 95 102
41 33 24 28 316 258 246 236 202 219 215 223 230 247 238 252 268 272 277 279 261 235 240 227 197 174 128 116 137 90 82 12 72 355 56 70 64 74 65 81 89 90 94
15 29 21 357 339 294 277 280 262 200 198 226 234 234 227 244 249 245 280 36 22 330 281 216 192 148 134 120 119 95 75 84 65 352 52 64 68 79 63 84 65 86 85
21 20 26 30 29 15 278 266 286 193 197 215 223 236 223 253 258 115 95 74 64 53 62 68 98 98 95 93 94 96 99 88 72 47 30 76 57 69 56 65 71 64 64
24 24 20 33 38 40 46 45 49 42 53 38 340 227 21 69 89 97 92 89 74 84 98 104 104 106 104 99 98 98 75 89 81 46 12 67 31 68 52 60 95 107 99
30 28 28 25 40 48 53 52 48 55 61 60 53 57 70 81 84 77 74 72 73 64 70 69 68 71 77 83 78 64 75 81 85 83 357 84 104 67 52 14 39 350 354